Chillicothe, MO

12:32 AM CDT on August 22, 2019 (GMT -0500)
Chillicothe

Weather History for KCDJ - July, 2019

Change the Weather History Date:

Sunday, July 21, 2019

  Actual Average (KIRK) Record (KIRK)
Temperature  
Mean Temperature 78 °F -  
Max Temperature 86 °F 86 °F 109 °F (1934)
Min Temperature 71 °F 66 °F 50 °F (1970)
Cooling Degree Days 14    
Growing Degree Days 28 (Base 50)    
Moisture  
Dew Point 71 °F    
Average Humidity 85    
Maximum Humidity 100    
Minimum Humidity 63    
Precipitation  
Precipitation 0.84 in - - ()
Sea Level Pressure  
Sea Level Pressure 29.96 in    
Wind  
Wind Speed 5 mph (NNE)    
Max Wind Speed 10 mph    
Max Gust Speed 22 mph    
Averages and records for this station are not official NWS values.
T = Trace of Precipitation, MM = Missing Value Source: NWS Daily Summary

Daily Weather History Graph

Daily Weather History Graph

Search for Another Location

Airport or City:

Astronomy

Jul. 21, 2019 Rise Set
Actual Time 6:03 AM CDT 8:37 PM CDT
Civil Twilight 5:32 AM CDT 9:08 PM CDT
Nautical Twilight 4:53 AM CDT 9:47 PM CDT
Astronomical Twilight 4:09 AM CDT 10:31 PM CDT
Moon 11:33 PM CDT (7/21) 10:23 AM CDT (7/21)
Length of Visible Light 15h 36m
Length of Day
14h 34m
Waning Gibbous, 80% of the Moon is Illuminated
Jul 21
Waning Gibbous
Jul 24
Last Quarter
Jul 31
New
Aug 7
First Quarter
Aug 15
Full

Hourly Weather History & Observations

Time (CDT) Temp. Heat Index Dew Point Humidity Pressure Visibility Wind Dir Wind Speed Gust Speed Precip Events Conditions
12:52 AM 71.1 °F - 71.1 °F 100% 29.99 in - Variable 6.9 mph - 0.03 in   Unknown
1:52 AM 72.0 °F - 69.1 °F 91% 29.89 in - South 8.1 mph 21.9 mph 0.30 in   Unknown
2:52 AM 71.1 °F - 70.0 °F 96% 29.96 in - Variable 4.6 mph - 0.06 in   Unknown
3:52 AM 71.1 °F - 70.0 °F 96% 29.94 in - South 8.1 mph 19.6 mph 0.13 in   Unknown
4:52 AM 71.1 °F - 70.0 °F 96% 29.94 in - West 3.5 mph - 0.14 in   Unknown
6:52 AM 72.0 °F - 69.1 °F 91% 29.94 in - North 6.9 mph - N/A   Unknown
7:52 AM 72.0 °F - 70.0 °F 93% 29.96 in - NW 4.6 mph - N/A   Unknown
8:52 AM 73.9 °F - 70.0 °F 87% 29.95 in - Calm Calm - N/A   Unknown
9:52 AM 75.0 °F - 71.1 °F 87% 29.98 in - ENE 8.1 mph - N/A   Unknown
10:52 AM 75.9 °F - 70.0 °F 82% 29.99 in - ENE 5.8 mph - N/A   Unknown
11:52 AM 78.1 °F - 71.1 °F 79% 30.01 in - Calm Calm - N/A   Unknown
12:52 PM 81.0 °F 84.9 °F 71.1 °F 72% 29.99 in - Calm Calm - N/A   Unknown
1:52 PM 82.9 °F 87.0 °F 70.0 °F 65% 29.96 in - ENE 4.6 mph - N/A   Unknown
2:52 PM 84.0 °F 88.4 °F 70.0 °F 63% 29.93 in - Variable 3.5 mph - N/A   Unknown
4:52 PM 86.0 °F 92.2 °F 72.0 °F 63% 29.94 in - Variable 4.6 mph - N/A   Unknown
5:52 PM 82.0 °F 86.7 °F 72.0 °F 71% 29.95 in - Calm Calm - N/A   Unknown
6:52 PM 79.0 °F - 72.0 °F 79% 29.96 in - North 8.1 mph - 0.01 in   Unknown
7:52 PM 75.0 °F - 73.0 °F 94% 29.98 in - Variable 3.5 mph - 0.01 in   Unknown
8:52 PM 73.9 °F - 72.0 °F 93% 29.97 in - North 10.4 mph 18.4 mph 0.07 in   Unknown
9:52 PM 73.0 °F - 71.1 °F 93% 29.98 in - North 8.1 mph - 0.05 in   Unknown
10:52 PM 73.0 °F - 71.1 °F 93% 30.00 in - North 3.5 mph - 0.01 in   Unknown
11:52 PM 73.0 °F - 71.1 °F 93% 30.01 in - NNE 6.9 mph - 0.03 in   Unknown